リニア-スキッフ彗星

P/2001 R6 ( LINEAR-Skiff ) 2010

English version
Home page
Updated on January 20, 2013

---------------------------------------------------------------------

・ プロフィール

・ 軌道要素

Epoch 2010 Mar. 25.0 TT = JDT 2455280.5
T 2010 Mar. 26.15005 TT                                 MPC
q   2.1786472            (2000.0)            P               Q
n   0.11570123     Peri.  308.44948     +0.92933064     -0.24561111
a   4.1710373      Node    67.32345     +0.35513965     +0.79897482
e   0.4776726      Incl.   17.38653     -0.10109596     +0.54892113
P   8.52
From 91 observations 2001 Aug. 19-2002 Feb. 1, mean residual 0".6.

・ 光度変化

        m1 = 6.8 + 5 logΔ + 30.0 log r

---------------------------------------------------------------------

軌道要素はM.P.E.C. 2013-A29に掲載されたものです。
光度グラフはComet for Windowsで作成したものです。

---------------------------------------------------------------------

Copyright(C) Seiichi Yoshida (comet@aerith.net). All rights reserved.